When you browse on this site, cookies collect data to enhance your experience and personalize the content and advertising you see.
Visit our Privacy Policy to learn more. By continuing to use the site, you agree to this use of cookies and data.
  • In Hungary
  • List of Countries
  • For 7 days
  • Water Temperature
  • Weather Map
  • News
  • Weather Widgets
  • user-avatar
    Login

    Hourly Weather La Châtre

    Today, 20 November, Wednesday

    Time Temperature Precipitation Wind Pressure Humidity
    00:00 -1°C° 0 mm 3 mps 741 mmHg 93%
    01:00 -1°C° 0 mm 3 mps 740 mmHg 92%
    02:00 -1°C° 0 mm 3 mps 739 mmHg 92%
    03:00 0°C° 0 mm 3 mps 739 mmHg 91%
    04:00 -1°C° 0 mm 3 mps 738 mmHg 91%
    05:00 -1°C° 0 mm 3 mps 738 mmHg 91%
    06:00 -1°C° 0 mm 3 mps 738 mmHg 91%
    07:00 +1°C° 0 mm 2 mps 738 mmHg 86%
    08:00 +3°C° 0 mm 2 mps 738 mmHg 81%
    09:00 +4°C° 0 mm 2 mps 737 mmHg 76%
    10:00 +7°C° 0 mm 1 mps 737 mmHg 72%
    11:00 +9°C° 0 mm 1 mps 737 mmHg 67%
    12:00 +11°C° 0 mm 1 mps 736 mmHg 62%
    13:00 +11°C° 0 mm 1 mps 736 mmHg 65%
    14:00 +9°C° 0 mm 2 mps 735 mmHg 69%
    15:00 +9°C° 0 mm 2 mps 735 mmHg 72%
    16:00 +8°C° 0 mm 2 mps 735 mmHg 78%
    17:00 +6°C° 0 mm 2 mps 734 mmHg 84%
    18:00 +5°C° 0 mm 2 mps 734 mmHg 90%
    19:00 +5°C° 0 mm 2 mps 734 mmHg 90%
    20:00 +4°C° 0 mm 2 mps 734 mmHg 90%
    21:00 +4°C° 0 mm 2 mps 734 mmHg 89%
    22:00 +4°C° 0 mm 2 mps 734 mmHg 87%
    23:00 +4°C° 0 mm 2 mps 734 mmHg 86%

    Tomorrow, 21 November, Thursday

    Time Temperature Precipitation Wind Pressure Humidity
    00:00 +4°C° 0 mm 2 mps 734 mmHg 84%
    01:00 +4°C° 0 mm 2 mps 734 mmHg 84%
    02:00 +3°C° 0 mm 2 mps 734 mmHg 85%
    03:00 +2°C° 0 mm 3 mps 733 mmHg 85%
    04:00 +2°C° 0 mm 3 mps 733 mmHg 85%
    05:00 +2°C° 0 mm 3 mps 733 mmHg 85%
    06:00 +2°C° 0 mm 3 mps 733 mmHg 85%
    07:00 +4°C° 0 mm 3 mps 733 mmHg 82%
    08:00 +5°C° 0 mm 3 mps 733 mmHg 79%
    09:00 +6°C° 0 mm 4 mps 733 mmHg 76%
    10:00 +7°C° 0 mm 4 mps 733 mmHg 72%
    11:00 +10°C° 0 mm 4 mps 733 mmHg 68%
    12:00 +11°C° 0 mm 4 mps 732 mmHg 64%
    13:00 +10°C° 0.2 mm 4 mps 732 mmHg 70%
    14:00 +9°C° 0.2 mm 3 mps 732 mmHg 75%
    15:00 +8°C° 0.2 mm 3 mps 732 mmHg 81%
    16:00 +8°C° 0.3 mm 3 mps 732 mmHg 84%
    17:00 +7°C° 0.3 mm 3 mps 732 mmHg 87%
    18:00 +7°C° 0.3 mm 3 mps 732 mmHg 90%
    19:00 +5°C° 0 mm 3 mps 733 mmHg 90%
    20:00 +5°C° 0 mm 3 mps 733 mmHg 91%
    21:00 +4°C° 0 mm 3 mps 733 mmHg 92%
    22:00 +4°C° 0 mm 3 mps 733 mmHg 91%
    23:00 +4°C° 0 mm 3 mps 733 mmHg 90%

    Day after tomorrow, 22 November, Friday

    Time Temperature Precipitation Wind Pressure Humidity
    00:00 +4°C° 0 mm 3 mps 733 mmHg 90%
    01:00 +4°C° 0 mm 3 mps 733 mmHg 90%
    02:00 +4°C° 0 mm 3 mps 732 mmHg 90%
    03:00 +4°C° 0 mm 3 mps 732 mmHg 90%
    04:00 +4°C° 0 mm 3 mps 732 mmHg 88%
    05:00 +4°C° 0 mm 3 mps 732 mmHg 87%
    06:00 +3°C° 0 mm 3 mps 732 mmHg 86%
    07:00 +4°C° 0 mm 3 mps 731 mmHg 81%
    08:00 +5°C° 0 mm 4 mps 731 mmHg 76%
    09:00 +6°C° 0 mm 4 mps 730 mmHg 71%
    10:00 +7°C° 0 mm 4 mps 729 mmHg 66%
    11:00 +9°C° 0 mm 5 mps 728 mmHg 61%
    12:00 +12°C° 0 mm 5 mps 728 mmHg 57%
    13:00 +12°C° 0 mm 4 mps 726 mmHg 60%
    14:00 +11°C° 0 mm 4 mps 725 mmHg 64%
    15:00 +11°C° 0 mm 3 mps 724 mmHg 68%
    16:00 +11°C° 0 mm 4 mps 724 mmHg 69%
    17:00 +10°C° 0 mm 4 mps 723 mmHg 71%
    18:00 +9°C° 0 mm 5 mps 722 mmHg 72%
    19:00 +10°C° 0 mm 4 mps 722 mmHg 72%
    20:00 +10°C° 0 mm 4 mps 722 mmHg 71%
    21:00 +11°C° 0 mm 4 mps 721 mmHg 71%
    22:00 +10°C° 0.1 mm 4 mps 721 mmHg 74%
    23:00 +10°C° 0.1 mm 3 mps 721 mmHg 77%

    23 November, Saturday

    Time Temperature Precipitation Wind Pressure Humidity
    00:00 +10°C° 0.1 mm 3 mps 721 mmHg 80%
    01:00 +10°C° 0.4 mm 3 mps 720 mmHg 82%
    02:00 +10°C° 0.4 mm 3 mps 720 mmHg 85%
    03:00 +10°C° 0.4 mm 3 mps 720 mmHg 88%
    04:00 +10°C° 1.8 mm 3 mps 720 mmHg 90%
    05:00 +10°C° 1.8 mm 3 mps 720 mmHg 92%
    06:00 +10°C° 1.8 mm 3 mps 720 mmHg 94%
    07:00 +10°C° 0.5 mm 3 mps 721 mmHg 92%
    08:00 +10°C° 0.5 mm 3 mps 722 mmHg 91%
    09:00 +10°C° 0.5 mm 3 mps 722 mmHg 90%
    10:00 +10°C° 0 mm 3 mps 723 mmHg 86%
    11:00 +11°C° 0 mm 4 mps 723 mmHg 83%
    12:00 +12°C° 0 mm 4 mps 724 mmHg 80%
    13:00 +12°C° 0 mm 3 mps 724 mmHg 80%
    14:00 +12°C° 0 mm 3 mps 724 mmHg 80%
    15:00 +13°C° 0 mm 2 mps 724 mmHg 80%
    16:00 +12°C° 0 mm 2 mps 725 mmHg 82%
    17:00 +10°C° 0 mm 2 mps 726 mmHg 84%
    18:00 +9°C° 0 mm 2 mps 727 mmHg 87%
    19:00 +9°C° 0 mm 2 mps 728 mmHg 87%
    20:00 +8°C° 0 mm 2 mps 728 mmHg 88%
    21:00 +8°C° 0 mm 2 mps 729 mmHg 89%
    22:00 +7°C° 0 mm 2 mps 730 mmHg 90%
    23:00 +7°C° 0 mm 2 mps 731 mmHg 90%

    24 November, Sunday

    Time Temperature Precipitation Wind Pressure Humidity
    00:00 +7°C° 0 mm 2 mps 731 mmHg 91%
    01:00 +7°C° 0 mm 2 mps 732 mmHg 92%
    02:00 +7°C° 0 mm 2 mps 732 mmHg 93%
    03:00 +6°C° 0 mm 2 mps 732 mmHg 93%
    04:00 +6°C° 0 mm 2 mps 733 mmHg 94%
    05:00 +6°C° 0 mm 2 mps 733 mmHg 94%
    06:00 +7°C° 0 mm 1 mps 734 mmHg 94%
    07:00 +8°C° 0 mm 1 mps 735 mmHg 92%
    08:00 +9°C° 0 mm 1 mps 736 mmHg 89%
    09:00 +10°C° 0 mm 1 mps 736 mmHg 87%
    10:00 +11°C° 0 mm 1 mps 737 mmHg 82%
    11:00 +12°C° 0 mm 1 mps 737 mmHg 78%
    12:00 +14°C° 0 mm 1 mps 737 mmHg 73%
    13:00 +13°C° 0 mm 1 mps 738 mmHg 75%
    14:00 +13°C° 0 mm 1 mps 738 mmHg 77%
    15:00 +13°C° 0 mm 1 mps 738 mmHg 79%
    16:00 +12°C° 0 mm 2 mps 739 mmHg 82%
    17:00 +12°C° 0 mm 2 mps 739 mmHg 85%
    18:00 +10°C° 0 mm 2 mps 740 mmHg 88%
    19:00 +9°C° 0 mm 2 mps 740 mmHg 90%
    20:00 +8°C° 0 mm 2 mps 740 mmHg 92%
    21:00 +8°C° 0 mm 2 mps 741 mmHg 94%
    22:00 +7°C° 0 mm 2 mps 741 mmHg 95%
    23:00 +7°C° 0 mm 2 mps 741 mmHg 95%

    25 November, Monday

    Time Temperature Precipitation Wind Pressure Humidity
    00:00 +7°C° 0 mm 2 mps 741 mmHg 96%
    01:00 +7°C° 0 mm 2 mps 741 mmHg 95%
    02:00 +7°C° 0 mm 2 mps 741 mmHg 95%
    03:00 +7°C° 0 mm 2 mps 741 mmHg 95%
    04:00 +7°C° 0 mm 2 mps 741 mmHg 95%
    05:00 +6°C° 0 mm 2 mps 741 mmHg 95%
    06:00 +6°C° 0 mm 2 mps 741 mmHg 95%
    07:00 +7°C° 0 mm 3 mps 741 mmHg 93%
    08:00 +8°C° 0 mm 3 mps 741 mmHg 91%
    09:00 +8°C° 0 mm 4 mps 742 mmHg 89%
    10:00 +8°C° 0 mm 4 mps 741 mmHg 84%
    11:00 +10°C° 0 mm 4 mps 741 mmHg 79%
    12:00 +11°C° 0 mm 3 mps 741 mmHg 73%
    13:00 +11°C° 0 mm 4 mps 741 mmHg 76%
    14:00 +11°C° 0 mm 4 mps 741 mmHg 78%
    15:00 +11°C° 0 mm 4 mps 741 mmHg 80%
    16:00 +10°C° 0 mm 4 mps 740 mmHg 83%
    17:00 +10°C° 0 mm 4 mps 740 mmHg 86%
    18:00 +10°C° 0 mm 4 mps 740 mmHg 88%
    19:00 +10°C° 0.1 mm 4 mps 740 mmHg 88%
    20:00 +9°C° 0.1 mm 5 mps 740 mmHg 88%
    21:00 +10°C° 0.1 mm 5 mps 741 mmHg 88%
    22:00 +9°C° 0 mm 5 mps 740 mmHg 88%
    23:00 +9°C° 0 mm 5 mps 740 mmHg 89%
    Show more